To NAV CANADA Home Page Login to a new session Search on AWWS site Disclaimer Vers la page française équivalente Tips FAQ What's new on the site To the Forecasts and Observations / NOTAM section To "File a Flight Plan" website Publications and other links Update of the User's profile FIC Telephone Numbers My Weather Data Folder Route Weather Data Regional Weather Data Local Weather Data To the Forecasts and Observations / NOTAM section
Request Generated 04/22/2019 at 12:07:28 UTC . Weather information available at that time is displayed.

METAR/TAF

CHATHAM-KENT/ON    (show WxCam)

METAR CYCK 221200Z AUTO 15007KT 9SM OVC150 07/06 A3022 RMK SLP240=
METAR CYCK 221100Z AUTO 15006KT 9SM OVC140 06/06 A3020 RMK SLP233=
METAR CYCK 221000Z AUTO 16006KT 9SM OVC140 06/05 A3018 RMK SLP227=

CYCK - No TAF is issued for this station

Your time UTC time
Weather data provided by Environment Canada and NAV CANADA